Vorticity
9 9 9 9 9 9 10 10 11 11 12 11 8 8 7 7 6 5 6 5 5 5 5 6 8 9 9 10 9 9 9 8 7 8 8 6 8 8 6 8 6 3 5 10 10 9 7 6 4 1 1 1 0 -0 1 0 0 -2 1 13 13 8 8 5 4 7 8 7 7 7 6 4 4 4 4 3 2 3 3 3 3 5 6 8 10 10 11 9 7 7 5 5 4 4 4 4 5
8 8 8 8 8 9 8 8 9 11 13 11 10 10 8 7 7 6 5 5 5 5 5 5 6 7 7 8 8 10 10 8 8 9 8 7 9 9 8 7 3 1 3 8 7 5 5 4 3 3 3 2 1 0 0 0 2 -1 0 13 13 5 7 5 5 6 7 7 7 7 6 5 4 4 4 3 2 2 3 3 3 5 6 7 10 10 11 9 7 6 5 5 4 4 5 4 4
7 7 7 7 7 8 7 8 8 10 12 11 11 10 9 8 8 8 6 6 6 5 6 5 6 6 6 7 7 9 9 8 9 9 8 8 9 7 7 6 3 0 1 4 5 4 3 2 3 3 2 0 0 1 0 -1 1 1 1 11 11 5 6 4 5 5 6 8 8 8 7 5 4 4 3 3 2 3 3 3 3 5 6 7 11 11 10 9 7 6 4 4 5 5 4 4 4
5 6 7 7 7 7 9 10 9 12 12 10 10 9 9 9 9 9 8 8 6 4 6 6 6 6 6 6 7 9 8 8 10 9 8 7 9 7 6 6 3 2 2 4 5 3 1 2 3 1 2 2 1 -0 -1 -1 1 3 3 9 9 5 5 4 4 5 5 8 9 8 7 5 4 3 3 3 3 3 3 3 4 5 6 8 11 12 9 7 6 6 4 4 5 5 4 4 5
5 5 5 6 6 7 8 10 12 13 10 9 9 7 9 8 9 10 8 9 6 4 5 6 5 5 6 5 8 9 7 8 8 8 8 7 8 5 2 2 2 5 6 6 4 2 2 3 3 2 2 0 -1 -1 0 2 2 3 5 8 8 4 5 4 4 4 5 8 10 9 7 5 3 3 3 3 3 3 4 4 5 5 6 8 11 12 9 7 6 6 4 4 5 4 4 4 6
5 4 5 4 5 6 7 12 15 13 10 10 8 6 7 6 9 9 9 11 7 4 4 6 5 6 6 6 9 7 7 9 8 7 6 5 3 1 1 4 6 7 5 4 3 2 3 2 1 0 -1 -1 -0 2 3 3 2 6 10 9 6 5 5 4 4 4 5 9 10 9 7 5 3 3 3 3 3 4 5 5 5 5 6 8 10 12 10 6 5 5 5 4 4 4 4 5 8
5 4 5 4 5 6 8 14 15 14 11 9 8 4 5 3 7 9 9 11 8 7 6 6 6 8 8 9 10 7 8 9 8 8 6 5 4 5 7 8 7 5 4 3 2 1 0 -1 -1 -2 -2 1 3 3 2 3 6 13 14 9 6 5 5 4 4 4 6 10 11 9 6 5 4 4 4 4 4 5 6 6 6 5 7 8 10 13 10 5 3 4 5 5 4 4 4 6 9
6 6 6 5 7 6 8 13 13 13 6 8 11 2 2 2 7 12 9 10 9 8 6 6 8 9 9 11 12 8 9 8 8 8 7 7 6 7 7 6 5 5 5 4 3 1 1 1 1 1 1 1 2 3 4 6 10 16 14 7 5 5 5 4 3 5 8 12 12 10 7 6 5 5 5 5 5 6 6 6 6 5 8 9 11 13 9 5 3 2 3 4 3 4 5 6 8
7 6 6 6 7 7 10 12 10 9 4 12 11 -3 1 4 9 14 10 11 9 8 7 7 8 8 8 11 10 9 12 10 9 9 7 8 6 5 4 5 6 6 6 5 5 4 4 4 3 2 2 4 5 6 8 13 15 14 10 6 5 5 5 3 4 7 11 14 12 9 8 7 6 6 5 5 5 5 6 7 5 6 9 10 12 12 8 5 2 0 1 1 2 4 5 6 8
8 7 7 6 6 7 9 10 9 7 9 14 4 -4 4 5 12 15 10 10 9 9 8 8 9 9 9 10 9 10 11 10 9 7 7 7 5 5 4 6 6 5 4 4 5 5 4 3 3 3 4 6 7 9 12 16 15 10 6 4 5 5 4 4 7 12 15 14 11 8 7 7 6 6 5 5 5 5 7 7 6 6 10 12 11 11 8 5 2 1 1 -0 0 1 3 6 8
7 7 7 7 7 7 8 12 10 7 11 8 -0 2 5 4 14 13 9 10 8 9 8 8 8 8 10 10 9 8 7 6 6 4 4 5 4 5 4 5 5 4 4 4 4 3 3 2 2 3 6 8 9 13 16 14 9 6 5 4 4 4 5 8 11 12 13 12 10 9 7 7 7 6 6 6 6 6 7 7 6 6 10 10 9 11 8 5 4 1 1 1 1 1 4 6 7
7 7 7 7 8 8 10 14 8 7 10 5 3 7 4 6 15 11 8 9 7 8 8 8 7 7 8 6 5 5 6 4 3 3 3 5 5 5 5 6 6 6 5 5 4 3 2 3 4 4 7 10 13 14 11 8 5 3 3 4 5 6 8 9 11 11 11 11 10 8 7 7 7 7 8 7 7 7 7 7 7 7 8 9 8 10 8 7 5 1 2 3 2 2 5 6 7
8 8 8 8 8 9 11 11 7 9 8 4 7 7 5 9 12 10 9 8 7 8 7 8 7 6 6 5 5 6 6 4 3 3 2 3 4 6 7 8 9 8 8 7 6 6 5 4 3 5 10 13 12 9 6 4 3 3 4 6 7 8 10 9 9 11 11 10 9 7 7 7 7 8 8 8 7 8 8 7 8 8 7 8 9 10 9 8 4 1 2 2 1 2 5 6 7
8 8 8 9 9 9 10 10 9 8 5 7 9 6 7 10 9 10 10 7 8 8 7 8 6 5 6 5 6 6 5 4 4 2 2 1 2 7 10 11 10 9 9 10 10 8 7 6 6 9 13 12 8 5 4 4 3 4 6 7 8 8 8 9 9 10 10 9 8 7 6 7 8 8 8 7 8 9 9 8 8 8 5 5 8 11 10 9 6 2 1 1 2 2 4 5 6
9 9 9 9 9 10 12 11 9 7 6 9 8 6 11 8 8 11 9 7 7 7 8 7 6 8 8 5 4 3 3 4 3 1 1 0 3 7 9 9 8 8 7 11 16 16 13 11 13 14 12 8 6 6 4 5 5 6 8 7 7 7 6 7 8 9 10 10 9 7 6 7 8 9 8 8 10 10 9 7 6 6 6 6 5 9 12 11 6 0 -0 1 2 3 4 4 3
8 8 9 9 10 11 12 12 11 8 7 11 8 8 11 8 9 10 8 8 6 8 10 8 6 7 6 4 4 3 2 1 -0 1 1 1 5 7 9 8 7 5 4 12 19 18 16 16 16 13 10 8 6 5 5 5 6 6 6 6 5 5 6 6 7 9 10 10 9 8 7 8 9 9 8 8 9 8 9 7 4 4 7 8 5 6 11 10 6 3 3 2 3 7 7 3 1
7 8 9 9 11 10 12 15 11 7 7 11 9 8 10 9 8 8 8 9 7 8 11 8 5 5 4 2 3 3 2 0 0 2 2 3 5 6 7 7 6 5 3 7 14 15 14 14 14 11 8 7 6 5 6 5 5 5 3 4 5 4 5 6 8 10 10 10 10 9 9 9 8 7 7 7 7 6 6 6 4 6 7 7 5 6 11 10 8 6 5 3 3 6 6 3 1
8 8 9 10 10 10 13 12 8 6 8 10 9 8 9 9 7 7 10 8 7 9 9 7 6 6 3 2 2 0 -1 -0 1 2 4 5 5 5 6 4 2 4 7 8 11 13 14 13 11 9 7 6 5 4 5 5 4 4 4 4 5 5 5 7 9 10 11 11 11 10 9 8 7 6 7 6 6 5 6 8 6 6 6 4 4 8 11 11 9 6 4 3 1 2 3 3 2
8 8 11 11 10 11 11 10 10 7 6 9 10 8 8 9 7 8 10 8 8 8 6 6 6 4 1 2 1 -2 0 1 1 5 9 9 3 -0 2 6 6 4 7 11 12 13 15 16 12 6 6 5 5 5 4 6 5 3 4 5 5 4 6 8 10 10 10 11 10 10 8 7 8 8 8 8 7 7 7 9 6 5 6 5 8 11 12 13 11 7 4 2 0 -1 1 4 1
10 11 12 10 9 11 9 11 14 6 5 11 11 9 10 10 8 8 10 9 7 6 5 6 6 4 2 1 -3 -4 -0 2 7 9 9 10 9 9 10 7 10 15 15 13 14 18 19 15 10 5 5 6 4 6 5 4 4 3 4 5 5 6 9 9 9 10 9 10 10 9 10 9 10 9 8 8 7 8 8 9 8 8 7 6 11 11 10 12 11 8 5 4 3 -3 4 15 8
11 12 11 10 11 12 10 13 15 6 7 12 9 9 12 10 7 8 10 10 7 5 5 5 5 2 -0 -2 -3 1 4 7 9 9 10 5 0 8 19 17 12 12 14 18 16 15 16 10 7 7 6 7 5 5 5 5 4 4 6 6 8 10 9 8 8 8 8 9 9 9 10 10 9 9 8 8 7 8 8 9 9 6 6 8 11 10 8 8 8 8 6 7 8 -0 -2 11 14
10 12 11 10 11 13 11 15 17 8 8 11 7 10 13 9 6 9 11 8 7 8 8 7 5 1 -2 -4 -2 4 9 10 2 4 11 8 18 21 11 13 11 8 12 16 14 8 8 7 5 7 5 4 6 6 3 3 6 7 9 12 17 13 6 7 6 5 6 8 8 8 9 8 7 7 7 7 7 8 8 10 10 8 11 12 9 11 13 12 13 10 5 6 11 13 1 -3 7
9 11 10 8 11 15 12 16 16 7 10 10 5 11 12 8 7 10 10 8 8 9 8 6 5 3 2 1 1 0 2 4 -1 1 -2 -0 42 54 29 25 15 15 26 10 2 5 4 6 4 4 5 4 4 3 4 9 13 12 13 21 22 12 6 6 4 4 8 8 7 8 8 7 6 6 6 6 8 10 12 12 11 12 16 13 6 6 7 7 12 10 7 6 6 17 16 3 3
10 12 10 8 14 15 9 15 16 9 13 6 4 15 10 5 9 10 9 8 9 7 5 4 2 2 3 4 3 1 1 4 1 3 2 -7 8 17 17 44 45 27 23 1 -1 14 11 7 4 3 3 4 4 3 11 14 9 8 15 25 20 8 5 3 4 7 8 8 7 7 8 7 5 7 7 8 11 11 13 12 10 10 10 10 6 5 5 1 1 1 1 2 -1 7 16 9 3
10 10 9 11 15 14 9 19 21 12 13 4 7 17 6 3 10 9 8 7 8 6 6 4 2 3 3 5 4 4 5 7 5 4 17 9 -1 -6 -37 -18 34 39 24 6 -3 6 10 8 6 9 6 3 6 6 11 4 -5 3 11 20 17 5 2 3 8 9 7 8 6 7 9 6 4 7 9 10 11 10 11 9 7 6 3 6 7 6 11 10 7 4 -4 -0 12 10 3 6 6
8 7 9 11 12 13 14 24 23 13 13 6 9 15 2 3 9 10 8 5 7 7 6 6 5 5 4 6 4 5 4 5 6 1 14 11 8 22 -18 -41 -2 11 10 6 2 6 12 25 21 8 4 5 5 -1 2 1 -2 7 9 12 16 10 7 9 10 7 6 6 7 10 7 4 6 9 9 9 9 9 11 11 9 9 8 10 10 8 12 14 15 13 -1 4 33 26 -5 2 12
8 8 12 12 11 13 14 23 23 13 13 8 9 12 2 3 10 10 9 6 7 6 7 7 5 7 6 7 6 6 6 7 5 -3 12 17 1 14 22 22 12 -9 -11 -12 13 42 30 28 20 1 4 10 4 -6 -1 5 4 10 10 9 13 11 8 6 3 3 4 4 6 8 3 5 11 11 11 11 11 11 13 14 13 13 13 13 12 13 12 10 10 11 7 11 35 29 -2 4 11
8 10 15 14 12 14 13 21 23 13 13 11 8 11 5 6 10 9 9 8 7 5 6 6 4 6 6 7 9 8 7 10 13 6 8 14 5 1 14 33 23 6 11 3 23 55 39 19 9 5 13 11 5 2 4 6 5 10 12 11 10 6 3 2 3 4 6 6 7 7 7 12 14 14 15 13 12 14 14 15 17 16 13 10 8 11 12 9 7 9 16 18 22 16 5 8 8
8 11 13 12 13 15 13 18 22 15 12 12 8 10 10 10 9 7 8 7 8 8 7 6 5 5 5 6 8 9 7 6 13 13 7 7 12 13 11 21 21 11 18 25 22 15 15 22 18 16 17 14 17 16 10 6 8 10 7 10 11 6 6 6 6 7 8 8 8 9 13 14 14 14 15 12 12 15 17 17 19 17 12 11 12 17 20 19 18 17 17 14 9 7 6 8 6
10 10 10 11 13 13 10 13 19 15 11 12 9 10 13 12 5 3 6 6 5 7 8 9 8 5 6 7 7 8 6 6 12 15 13 14 16 17 16 15 18 13 9 23 24 0 -5 7 8 6 5 8 11 10 11 9 11 13 8 10 11 8 8 7 7 8 9 10 10 11 12 11 10 12 11 10 12 14 19 19 15 15 16 20 22 22 21 19 19 18 12 7 5 5 5 6 5
10 9 9 10 12 11 9 10 15 15 12 12 9 8 14 14 7 1 3 6 4 3 5 8 8 5 5 6 7 10 11 11 14 15 12 13 14 18 23 15 11 16 12 13 20 16 9 3 1 3 2 2 -2 -2 6 8 9 12 12 13 14 12 11 10 10 9 8 8 8 8 8 7 7 7 7 8 9 10 16 16 11 10 12 13 13 10 10 9 8 7 7 6 6 5 5 5 4
10 10 9 8 12 12 11 10 12 12 11 13 11 8 11 14 13 5 -0 2 3 2 3 5 6 3 2 5 8 11 13 14 10 10 13 12 12 13 15 15 13 13 14 14 14 15 16 14 14 14 12 8 6 5 5 5 3 1 2 4 6 7 7 7 7 6 7 6 5 6 6 7 8 5 4 4 4 7 12 9 5 5 7 8 7 7 7 7 7 7 7 7 6 5 5 4 5
10 11 12 11 13 13 12 10 10 10 9 11 12 9 9 11 14 12 5 2 0 -0 -1 1 5 4 5 8 10 9 5 8 11 10 14 10 9 12 10 13 16 12 13 15 14 14 13 12 12 13 11 10 10 8 7 8 3 -2 -3 -3 -2 -1 -1 2 4 4 6 7 7 7 7 7 6 5 5 6 7 9 10 7 4 7 11 12 11 11 11 10 9 8 7 5 4 4 4 4 6
12 12 14 12 10 11 13 10 8 10 7 8 10 8 10 12 12 12 11 9 5 3 -0 -2 -0 1 6 9 8 3 -6 -3 7 13 15 9 7 10 10 12 13 10 11 11 12 13 11 9 7 7 7 7 7 5 6 7 6 5 4 2 3 2 2 4 5 6 6 8 10 9 9 8 5 6 8 10 12 12 10 9 9 10 10 10 9 8 7 7 6 5 4 4 4 3 5 7 8
11 10 11 12 11 10 13 10 8 9 8 8 8 7 10 12 13 12 11 12 10 9 6 3 0 -2 3 8 6 -1 -12 -13 1 12 14 7 4 5 6 9 10 8 8 8 10 11 10 9 7 7 7 6 6 6 6 5 6 8 8 8 8 6 7 7 7 8 8 8 9 9 11 11 11 11 12 14 15 15 14 12 10 7 4 3 2 2 2 2 3 4 5 4 5 6 7 9 9
9 8 8 11 12 9 11 10 7 8 9 9 8 6 8 10 12 12 10 10 9 8 7 6 5 3 1 2 7 2 -12 -14 -7 5 13 10 6 7 7 6 9 10 6 3 6 10 11 9 8 9 8 6 6 6 6 5 4 3 4 6 5 5 5 5 6 8 9 10 9 11 13 15 15 13 13 15 15 14 12 8 4 1 1 1 1 2 3 4 5 6 7 7 8 9 9 9 8
8 8 7 8 11 8 7 9 7 7 8 9 9 7 7 8 9 12 12 9 9 10 10 9 7 6 2 -4 -3 -5 -12 -8 -7 -6 12 19 9 5 5 4 8 10 7 5 5 7 9 8 8 9 7 7 8 7 6 6 6 5 6 5 5 5 3 4 6 8 11 13 12 14 16 16 13 10 12 12 9 8 4 2 1 2 3 4 5 7 7 8 9 10 10 11 10 9 8 8 7
8 11 9 7 10 9 5 8 10 9 7 7 10 9 8 9 9 11 13 12 12 10 8 10 9 8 6 -0 -5 -11 -13 -6 -7 -7 14 23 9 4 6 2 6 10 7 6 6 6 7 4 5 6 5 8 9 9 8 6 5 5 6 7 6 5 5 5 7 10 13 14 14 15 14 11 9 8 8 6 4 1 1 2 4 5 7 8 10 12 13 12 12 11 10 10 9 8 8 8 8
9 12 14 10 8 9 5 5 12 13 9 7 9 10 10 11 11 11 12 14 15 14 11 9 10 9 10 10 7 1 -2 -3 -4 3 20 21 6 3 5 0 3 9 8 7 6 7 7 3 3 3 3 7 8 9 9 8 7 6 7 8 7 6 6 6 7 11 13 13 14 13 9 6 7 7 4 2 1 -0 1 4 6 8 9 11 13 13 12 10 9 8 7 7 8 8 9 8 7
6 8 15 13 7 10 7 3 9 12 11 10 9 11 12 10 11 12 12 13 14 15 16 12 10 11 12 14 14 11 7 5 7 12 16 14 5 2 5 1 2 8 8 6 6 8 7 5 5 3 3 7 9 8 8 8 9 8 7 6 6 6 5 6 7 9 12 13 12 10 7 6 8 8 6 4 3 2 3 4 7 10 10 10 10 9 7 7 7 7 7 8 8 9 10 9 7
5 7 13 14 7 8 8 4 6 10 11 11 8 9 12 10 9 9 10 14 14 12 14 15 13 13 15 13 10 12 12 9 11 12 12 11 5 3 3 -0 1 7 8 6 7 9 7 7 9 6 4 5 7 7 6 8 10 8 5 3 3 4 5 7 8 8 10 11 11 10 7 7 9 8 7 8 7 5 5 7 10 10 9 9 8 7 5 6 8 7 8 9 9 10 9 9 8
8 9 14 14 7 5 7 4 4 8 9 7 6 6 10 13 12 9 9 11 12 9 9 14 14 13 14 13 12 14 12 11 12 12 12 11 5 3 4 2 2 5 8 6 6 9 7 8 12 8 4 4 4 5 6 7 7 5 3 2 3 4 5 8 9 10 11 10 10 8 6 7 7 7 8 8 7 7 7 10 10 8 7 7 7 8 6 5 7 6 7 8 8 9 8 8 9
8 10 12 12 7 5 7 4 4 7 6 5 7 9 13 14 12 10 10 11 14 11 9 12 13 12 12 13 15 14 12 16 19 14 9 9 11 11 10 7 2 4 9 4 3 7 7 9 13 9 6 6 5 5 6 7 6 5 5 4 5 5 7 10 11 10 11 11 8 6 6 6 6 7 9 8 7 8 9 9 8 7 7 6 6 7 5 4 4 4 5 6 6 7 7 8 9
7 9 9 9 6 5 6 5 5 7 8 7 7 11 13 11 11 14 15 19 23 20 16 17 15 13 13 13 12 13 19 21 13 5 5 9 11 9 8 7 3 6 8 1 1 6 8 10 11 9 10 10 8 7 7 8 8 8 8 8 7 6 9 12 12 12 13 12 7 6 7 7 8 9 7 7 7 7 7 7 7 6 6 6 6 5 5 4 3 4 5 5 5 5 6 7 8
7 8 7 7 7 6 5 5 5 6 8 10 10 10 8 7 7 12 20 26 28 23 21 23 20 15 13 11 13 20 22 12 1 -0 6 10 8 4 5 5 5 9 4 -1 4 6 7 10 8 8 9 9 10 10 10 11 10 9 9 9 9 10 13 13 12 13 13 9 6 8 11 10 10 9 7 7 7 6 7 6 7 7 7 7 7 6 7 6 6 5 5 5 6 6 5 6 6
7 7 7 5 6 7 7 8 7 5 7 13 13 7 5 5 2 12 26 26 21 20 20 20 18 16 15 16 21 23 12 -0 -0 5 7 9 7 5 7 8 9 6 -1 0 7 6 7 10 8 7 7 6 8 9 10 11 11 9 7 7 9 14 15 11 12 13 9 6 7 8 11 12 10 8 8 7 7 7 7 7 8 8 8 9 9 9 9 9 9 8 7 6 7 7 7 6 6
6 6 6 5 6 7 7 10 8 5 11 21 17 5 5 7 6 19 28 16 8 12 11 11 14 15 15 17 19 15 7 4 8 11 9 5 3 4 9 12 8 -1 -2 6 9 6 8 9 7 4 4 3 3 10 13 10 10 9 8 8 8 13 13 8 8 9 6 5 7 9 9 10 10 9 9 8 8 8 8 9 11 11 12 12 11 11 10 9 9 9 8 7 6 7 7 6 6
6 7 8 8 8 8 8 9 9 8 16 26 17 4 4 6 8 18 19 7 3 6 6 6 10 12 9 10 11 9 10 12 12 12 9 3 7 12 9 6 2 -3 4 11 7 8 10 9 7 5 8 8 7 15 14 9 14 12 10 14 12 8 10 11 8 4 6 7 6 10 11 9 10 10 10 10 9 10 10 11 11 11 10 9 10 10 9 9 8 8 9 8 7 6 7 8 7
6 6 7 10 10 10 10 8 8 11 18 25 16 4 3 3 8 14 11 7 7 3 4 4 6 11 9 8 10 8 8 10 9 11 14 18 22 13 -0 -0 3 3 9 10 7 12 11 8 7 6 11 12 12 18 14 12 17 7 6 19 19 11 11 18 15 4 6 11 8 9 8 7 10 9 10 11 9 9 10 8 5 3 2 4 7 8 8 9 8 8 9 8 7 7 7 8 8
9 10 11 13 12 9 9 8 10 11 13 21 17 4 -1 1 10 14 6 5 9 4 2 2 4 7 8 9 8 5 6 6 5 4 18 38 25 -6 -8 5 8 7 10 8 8 12 11 10 8 7 14 15 13 13 7 11 14 3 10 25 23 22 26 30 30 22 16 12 7 7 6 6 8 9 10 9 7 7 3 -2 -4 -3 2 6 8 10 10 10 9 9 10 10 10 9 7 6 7
10 11 9 9 8 8 9 7 8 9 10 20 20 6 -1 1 7 12 7 3 7 8 4 2 2 2 4 5 4 5 5 4 2 -4 16 40 13 -16 -1 9 3 6 9 8 9 9 9 8 2 4 15 17 15 12 4 8 12 4 11 17 11 17 22 22 28 29 21 10 4 6 7 7 8 9 10 8 5 2 -5 -7 -2 4 8 8 7 8 8 9 9 9 9 10 10 10 10 9 8
9 7 5 6 7 7 9 7 7 9 11 19 22 10 3 4 5 8 9 7 7 10 10 9 4 -1 0 -1 1 7 3 -1 -1 -8 14 35 3 -18 -1 1 1 10 8 8 10 5 6 8 1 0 6 5 9 16 11 7 9 8 11 10 4 6 8 10 17 18 12 6 6 9 8 9 10 10 10 9 5 2 -1 3 8 11 10 7 5 6 7 8 9 9 10 10 10 10 11 11 11
11 9 7 8 7 4 6 7 8 9 10 16 22 17 9 5 7 11 10 8 9 8 8 12 8 1 1 2 7 17 16 12 7 0 20 35 7 -13 -9 -7 2 9 8 12 9 1 5 11 8 4 3 3 8 16 16 10 7 8 12 9 3 2 4 9 15 15 12 10 10 10 10 12 14 13 12 9 7 6 7 9 11 12 9 6 7 8 9 10 10 11 11 10 10 11 10 10 10
5 7 8 7 6 5 6 7 8 9 10 12 17 21 16 6 4 12 14 9 7 5 4 9 9 4 4 3 1 9 15 15 16 25 39 34 10 -5 -10 -6 3 6 13 20 11 5 8 11 12 8 5 7 7 7 10 14 13 8 8 8 6 6 5 5 9 13 13 11 10 10 11 13 14 12 10 7 8 9 9 11 13 12 8 7 9 10 9 9 10 11 11 10 9 9 8 8 8
2 2 4 7 9 9 9 9 8 9 12 13 14 17 20 15 5 4 8 8 5 3 3 5 4 2 4 3 -3 -1 3 4 17 42 48 26 6 -2 -5 -1 5 10 20 22 14 12 11 10 14 12 8 8 8 4 3 10 16 12 10 9 8 9 8 4 5 8 9 9 9 9 10 12 10 7 6 7 9 9 11 14 13 8 6 7 8 9 9 9 9 9 10 10 10 9 8 6 5
4 5 4 4 6 7 9 10 9 9 10 12 14 15 17 22 19 7 2 3 3 1 2 3 2 0 1 3 3 3 6 7 13 22 20 9 -0 -0 4 7 10 15 15 10 9 12 10 8 8 9 11 10 8 4 0 3 9 11 12 11 10 11 11 8 4 4 7 9 10 10 9 10 9 7 8 10 10 10 11 13 8 5 4 1 1 6 8 9 9 9 8 8 9 9 9 6 5
4 7 8 6 5 5 6 8 8 8 7 7 9 11 10 16 25 22 11 3 -0 -0 1 1 1 1 4 8 10 10 12 14 13 12 15 16 11 7 8 8 13 17 8 1 6 7 6 6 3 4 8 8 8 4 2 6 7 7 12 13 11 11 10 9 7 4 5 7 9 11 11 10 10 9 10 11 11 10 10 9 6 4 -0 -5 -1 7 8 6 7 8 8 7 8 8 9 9 7
3 5 7 8 10 8 6 8 9 8 7 6 5 4 4 7 15 22 22 16 10 8 7 6 7 9 12 14 14 16 16 13 15 18 18 17 17 18 16 11 17 20 7 2 9 6 3 3 1 5 7 5 7 6 6 12 11 6 5 2 3 6 9 14 13 8 6 6 8 9 10 11 10 10 11 11 11 10 9 8 6 4 1 0 7 12 10 7 7 8 8 7 6 7 7 8 9
Height
5848 5848 5849 5850 5850 5851 5852 5852 5852 5853 5854 5854 5855 5854 5853 5853 5853 5853 5853 5853 5853 5853 5854 5854 5854 5854 5855 5855 5856 5856 5857 5857 5858 5859 5859 5860 5861 5861 5861 5862 5863 5863 5864 5864 5865 5865 5865 5865 5866 5867 5867 5868 5869 5870 5870 5870 5869 5868 5868 5867 5866 5865 5865 5864 5864 5864 5864 5864 5863 5863 5862 5862 5861 5861 5860 5859 5859 5859 5859 5859 5859 5858 5858 5857 5857 5856 5856 5855 5854 5853 5852 5852 5852 5852 5851 5851 5851
5845 5845 5846 5846 5847 5848 5848 5849 5849 5850 5851 5851 5851 5851 5850 5850 5850 5850 5850 5850 5851 5851 5851 5851 5851 5851 5852 5853 5853 5854 5854 5855 5856 5857 5857 5858 5859 5859 5860 5860 5861 5862 5863 5863 5863 5863 5864 5864 5864 5865 5866 5866 5867 5868 5868 5868 5867 5866 5866 5865 5864 5863 5863 5862 5862 5862 5863 5863 5862 5862 5861 5861 5860 5860 5859 5858 5858 5858 5857 5858 5857 5857 5857 5857 5856 5856 5855 5855 5854 5853 5852 5852 5852 5852 5851 5851 5850
5841 5842 5843 5843 5844 5844 5845 5845 5846 5847 5848 5848 5848 5847 5847 5847 5847 5847 5848 5848 5848 5849 5848 5848 5849 5849 5850 5850 5851 5851 5852 5853 5854 5854 5855 5856 5857 5857 5858 5859 5860 5861 5861 5861 5862 5862 5862 5862 5863 5863 5864 5865 5865 5865 5865 5865 5865 5864 5864 5863 5862 5862 5861 5861 5861 5861 5862 5862 5861 5861 5860 5860 5859 5859 5858 5857 5857 5856 5856 5856 5856 5856 5856 5856 5855 5855 5855 5854 5853 5853 5852 5851 5852 5852 5851 5850 5850
5838 5839 5839 5840 5840 5841 5842 5842 5843 5844 5845 5844 5844 5844 5844 5844 5844 5844 5845 5845 5846 5846 5846 5846 5846 5847 5848 5848 5849 5850 5850 5851 5851 5852 5853 5854 5854 5855 5856 5857 5858 5859 5859 5859 5860 5860 5860 5861 5861 5862 5862 5863 5863 5863 5862 5862 5862 5862 5862 5861 5860 5860 5860 5860 5860 5860 5860 5860 5860 5860 5859 5858 5858 5857 5857 5856 5856 5855 5855 5855 5855 5855 5855 5855 5855 5855 5854 5854 5853 5852 5851 5851 5851 5852 5851 5851 5850
5835 5835 5836 5836 5837 5838 5838 5839 5840 5840 5841 5841 5840 5841 5841 5841 5841 5841 5842 5842 5844 5844 5843 5843 5844 5845 5846 5846 5847 5848 5848 5849 5849 5849 5850 5851 5852 5853 5854 5855 5856 5857 5857 5857 5858 5858 5858 5858 5859 5859 5860 5860 5860 5860 5860 5860 5860 5860 5860 5859 5859 5858 5858 5859 5859 5859 5859 5859 5859 5858 5858 5857 5857 5856 5856 5855 5855 5854 5854 5854 5854 5854 5854 5854 5854 5854 5854 5854 5853 5852 5851 5850 5851 5852 5852 5851 5850
5832 5832 5833 5833 5833 5834 5835 5835 5836 5837 5837 5837 5837 5837 5837 5837 5838 5838 5839 5839 5841 5842 5841 5841 5842 5843 5844 5845 5845 5846 5846 5847 5847 5847 5848 5849 5850 5851 5852 5852 5853 5854 5855 5855 5856 5856 5856 5856 5857 5857 5857 5858 5858 5857 5857 5857 5857 5857 5857 5857 5857 5857 5857 5857 5857 5857 5858 5858 5858 5857 5857 5856 5856 5855 5854 5854 5853 5853 5853 5853 5853 5853 5853 5853 5853 5854 5854 5853 5852 5852 5850 5850 5850 5851 5852 5851 5850
5829 5829 5829 5830 5830 5831 5831 5832 5833 5833 5833 5834 5833 5833 5833 5834 5835 5835 5835 5837 5839 5839 5839 5839 5840 5841 5842 5843 5843 5843 5844 5844 5844 5845 5845 5846 5847 5848 5849 5850 5851 5852 5852 5853 5853 5853 5853 5854 5854 5854 5855 5855 5855 5855 5855 5855 5855 5855 5855 5855 5855 5856 5856 5856 5856 5856 5856 5856 5856 5856 5855 5855 5854 5854 5853 5853 5852 5852 5852 5851 5851 5851 5852 5852 5853 5853 5853 5852 5852 5851 5850 5849 5850 5851 5852 5851 5851
5826 5826 5827 5827 5827 5828 5828 5828 5829 5829 5830 5830 5829 5829 5830 5831 5831 5832 5833 5835 5837 5837 5837 5837 5839 5839 5840 5841 5840 5841 5841 5841 5842 5842 5843 5844 5845 5845 5846 5847 5848 5849 5849 5850 5850 5850 5851 5851 5851 5852 5852 5852 5852 5852 5852 5853 5852 5852 5853 5853 5854 5854 5855 5854 5854 5855 5855 5855 5855 5854 5854 5853 5853 5853 5852 5851 5851 5851 5850 5850 5850 5850 5850 5851 5851 5852 5852 5852 5852 5851 5850 5849 5849 5850 5851 5851 5851
5823 5823 5824 5824 5824 5825 5825 5825 5825 5825 5826 5826 5826 5827 5827 5827 5828 5830 5832 5833 5834 5835 5836 5836 5837 5837 5837 5838 5838 5838 5839 5839 5840 5840 5841 5842 5842 5843 5844 5845 5846 5846 5846 5847 5847 5847 5848 5848 5848 5849 5849 5849 5849 5850 5850 5851 5851 5851 5851 5852 5852 5853 5853 5853 5853 5853 5854 5853 5853 5853 5852 5852 5851 5851 5850 5850 5849 5849 5849 5848 5848 5848 5849 5849 5850 5850 5851 5851 5851 5851 5850 5849 5849 5850 5851 5851 5851
5820 5820 5821 5821 5821 5821 5821 5821 5821 5822 5823 5823 5823 5824 5824 5824 5826 5828 5829 5830 5831 5832 5833 5833 5834 5834 5835 5835 5835 5836 5837 5837 5837 5838 5839 5839 5840 5841 5842 5843 5843 5843 5843 5844 5844 5844 5845 5845 5846 5846 5846 5847 5847 5848 5848 5849 5849 5849 5850 5851 5851 5851 5852 5852 5852 5852 5852 5852 5851 5851 5851 5850 5850 5849 5849 5848 5848 5847 5847 5847 5847 5847 5847 5848 5848 5849 5850 5850 5851 5851 5850 5849 5848 5849 5850 5850 5850
5816 5817 5818 5818 5818 5818 5818 5818 5818 5819 5820 5820 5820 5821 5821 5822 5824 5825 5827 5827 5828 5830 5830 5831 5831 5831 5832 5833 5833 5834 5834 5834 5835 5835 5836 5837 5838 5839 5839 5840 5840 5840 5840 5840 5841 5841 5842 5842 5843 5843 5844 5845 5845 5846 5846 5847 5847 5848 5848 5849 5850 5850 5850 5851 5851 5850 5850 5850 5849 5849 5849 5848 5848 5848 5847 5847 5846 5846 5845 5845 5845 5845 5845 5846 5846 5847 5848 5849 5850 5850 5850 5849 5848 5848 5849 5850 5850
5813 5814 5815 5815 5815 5815 5815 5815 5815 5816 5817 5817 5818 5818 5818 5820 5822 5823 5824 5824 5826 5827 5827 5828 5828 5829 5830 5830 5831 5831 5832 5832 5833 5833 5834 5835 5836 5837 5837 5837 5837 5837 5837 5838 5838 5838 5839 5840 5840 5841 5842 5843 5844 5844 5844 5845 5845 5846 5847 5848 5848 5849 5849 5849 5849 5848 5848 5848 5847 5847 5846 5846 5846 5846 5845 5845 5844 5844 5844 5844 5843 5843 5844 5844 5845 5846 5847 5848 5849 5849 5849 5849 5848 5847 5847 5848 5849
5811 5811 5811 5812 5812 5812 5812 5812 5812 5813 5814 5814 5815 5816 5816 5817 5819 5820 5821 5821 5823 5824 5824 5825 5825 5826 5827 5827 5829 5830 5830 5830 5831 5832 5832 5833 5834 5835 5835 5835 5835 5835 5835 5836 5836 5836 5837 5837 5838 5839 5840 5841 5842 5842 5842 5843 5843 5844 5845 5846 5847 5847 5847 5847 5846 5846 5846 5845 5845 5844 5844 5844 5844 5843 5843 5843 5842 5842 5842 5842 5842 5842 5842 5843 5843 5845 5846 5847 5848 5848 5848 5848 5848 5847 5846 5847 5848
5808 5808 5809 5809 5809 5809 5809 5809 5809 5810 5811 5812 5812 5813 5813 5814 5817 5817 5818 5818 5820 5821 5822 5822 5822 5824 5825 5826 5827 5827 5827 5828 5829 5830 5831 5831 5832 5833 5832 5832 5832 5833 5833 5833 5834 5834 5834 5835 5836 5837 5839 5839 5840 5840 5840 5841 5842 5843 5844 5845 5845 5845 5845 5844 5844 5844 5844 5843 5843 5842 5842 5842 5841 5841 5842 5841 5841 5841 5840 5840 5840 5840 5841 5841 5842 5843 5844 5845 5847 5847 5848 5848 5847 5847 5846 5846 5847
5805 5805 5806 5806 5806 5806 5806 5806 5806 5807 5808 5809 5809 5810 5811 5812 5814 5814 5815 5816 5817 5819 5820 5820 5820 5822 5823 5824 5824 5824 5825 5826 5827 5827 5828 5829 5829 5830 5830 5830 5830 5830 5831 5831 5831 5831 5832 5833 5834 5835 5836 5837 5837 5837 5838 5839 5840 5841 5842 5842 5843 5842 5842 5842 5841 5841 5841 5841 5840 5840 5840 5839 5839 5839 5840 5840 5839 5839 5839 5838 5838 5839 5839 5839 5840 5842 5843 5844 5845 5846 5847 5847 5847 5846 5846 5845 5845
5802 5802 5803 5803 5803 5803 5803 5803 5803 5804 5805 5806 5806 5807 5808 5809 5811 5811 5812 5813 5814 5816 5817 5817 5818 5820 5820 5820 5821 5821 5822 5823 5824 5825 5826 5827 5827 5827 5827 5827 5827 5827 5828 5828 5828 5828 5829 5830 5832 5833 5834 5834 5834 5835 5836 5838 5838 5839 5840 5840 5840 5839 5839 5839 5839 5839 5839 5838 5838 5837 5837 5837 5837 5838 5838 5838 5838 5838 5837 5837 5836 5837 5837 5838 5839 5840 5841 5842 5844 5845 5846 5846 5846 5846 5845 5844 5844
5799 5799 5799 5800 5800 5800 5800 5799 5799 5800 5801 5802 5804 5804 5805 5806 5808 5808 5810 5811 5812 5813 5815 5815 5816 5817 5817 5817 5818 5818 5819 5821 5822 5823 5824 5824 5823 5824 5824 5824 5824 5824 5824 5825 5825 5826 5827 5828 5829 5830 5831 5832 5832 5833 5835 5835 5836 5836 5837 5837 5837 5837 5837 5836 5836 5836 5836 5836 5835 5835 5835 5835 5835 5836 5836 5836 5836 5836 5836 5835 5835 5834 5835 5836 5837 5838 5839 5840 5842 5843 5844 5845 5845 5844 5844 5844 5843
5796 5796 5796 5796 5797 5796 5796 5796 5796 5797 5798 5799 5800 5801 5802 5803 5804 5806 5807 5808 5809 5811 5812 5813 5814 5814 5814 5815 5815 5816 5817 5819 5820 5821 5821 5820 5820 5820 5821 5821 5820 5820 5821 5822 5823 5824 5825 5826 5827 5827 5828 5829 5830 5831 5832 5833 5833 5834 5834 5834 5834 5834 5834 5834 5834 5834 5834 5833 5833 5833 5833 5833 5833 5833 5834 5834 5834 5834 5834 5833 5833 5832 5832 5833 5835 5836 5837 5839 5840 5841 5843 5844 5843 5843 5843 5843 5843
5793 5793 5793 5793 5793 5793 5792 5793 5793 5793 5794 5796 5797 5798 5799 5800 5801 5803 5805 5806 5807 5808 5809 5810 5811 5811 5811 5812 5812 5814 5816 5817 5819 5818 5817 5816 5816 5817 5818 5818 5818 5817 5818 5819 5820 5821 5822 5823 5824 5825 5826 5826 5827 5829 5829 5830 5831 5831 5831 5832 5832 5832 5832 5832 5831 5831 5831 5831 5831 5831 5831 5831 5831 5831 5831 5831 5831 5831 5832 5831 5831 5830 5830 5831 5832 5833 5835 5837 5838 5839 5841 5842 5842 5841 5841 5841 5842
5789 5789 5789 5789 5789 5789 5789 5790 5790 5791 5792 5793 5794 5796 5796 5797 5799 5800 5802 5803 5805 5806 5807 5807 5807 5808 5808 5809 5810 5812 5814 5816 5816 5814 5814 5813 5814 5815 5815 5814 5814 5813 5814 5815 5816 5817 5818 5820 5821 5822 5823 5824 5825 5826 5827 5828 5828 5828 5829 5829 5830 5830 5829 5829 5829 5829 5829 5829 5829 5829 5829 5829 5829 5829 5829 5829 5829 5829 5829 5829 5829 5829 5828 5828 5829 5831 5833 5835 5836 5837 5838 5839 5840 5839 5839 5840 5840
5786 5786 5785 5785 5786 5785 5786 5787 5787 5788 5789 5790 5792 5793 5794 5794 5796 5798 5800 5801 5802 5803 5804 5804 5804 5804 5805 5806 5808 5811 5812 5813 5813 5812 5812 5812 5811 5812 5811 5808 5807 5808 5810 5811 5812 5814 5815 5817 5818 5819 5820 5822 5823 5824 5824 5825 5826 5826 5826 5826 5827 5827 5827 5827 5827 5827 5827 5827 5827 5827 5827 5827 5827 5827 5826 5826 5826 5826 5826 5827 5827 5827 5827 5827 5827 5829 5831 5832 5834 5835 5836 5837 5837 5837 5838 5838 5839
5783 5782 5782 5782 5782 5783 5784 5785 5785 5786 5787 5787 5789 5791 5791 5792 5794 5796 5797 5798 5799 5801 5801 5802 5802 5802 5803 5805 5807 5809 5810 5810 5810 5810 5811 5811 5807 5805 5805 5803 5803 5804 5805 5806 5808 5810 5813 5813 5815 5816 5818 5820 5821 5821 5822 5823 5823 5824 5824 5823 5824 5824 5824 5825 5825 5825 5825 5825 5825 5825 5825 5825 5825 5825 5824 5824 5824 5824 5825 5825 5825 5825 5825 5825 5825 5827 5828 5830 5831 5833 5833 5834 5834 5834 5836 5837 5837
5780 5779 5779 5780 5780 5780 5781 5782 5782 5783 5784 5785 5786 5788 5789 5790 5792 5794 5795 5796 5797 5798 5799 5800 5800 5800 5802 5805 5806 5807 5808 5808 5808 5809 5810 5809 5803 5799 5800 5799 5799 5800 5800 5801 5804 5806 5809 5810 5812 5814 5815 5817 5818 5819 5820 5821 5821 5821 5820 5820 5820 5821 5822 5822 5823 5823 5823 5823 5823 5823 5823 5823 5823 5823 5823 5823 5822 5823 5823 5823 5823 5823 5823 5823 5824 5825 5826 5828 5829 5830 5831 5831 5832 5832 5835 5836 5836
5777 5776 5776 5777 5777 5777 5778 5779 5779 5780 5782 5783 5784 5785 5787 5788 5790 5792 5793 5794 5795 5796 5797 5797 5797 5799 5801 5804 5805 5806 5807 5806 5805 5807 5808 5805 5801 5799 5798 5796 5796 5796 5797 5800 5802 5804 5806 5807 5809 5810 5812 5814 5816 5818 5818 5818 5818 5818 5817 5817 5817 5818 5819 5820 5821 5821 5821 5821 5821 5821 5822 5822 5821 5821 5821 5821 5821 5821 5821 5821 5821 5822 5822 5822 5822 5823 5824 5825 5826 5827 5828 5828 5829 5831 5833 5834 5834
5773 5773 5773 5774 5774 5775 5775 5776 5777 5779 5780 5780 5782 5784 5785 5786 5788 5790 5791 5792 5793 5794 5794 5795 5796 5798 5800 5802 5803 5805 5805 5804 5802 5803 5804 5800 5798 5799 5797 5796 5798 5797 5797 5800 5801 5801 5802 5803 5805 5807 5811 5813 5815 5816 5816 5816 5816 5815 5815 5814 5815 5816 5817 5818 5819 5819 5819 5819 5819 5819 5820 5820 5820 5820 5819 5819 5819 5819 5819 5819 5819 5820 5820 5820 5821 5821 5822 5823 5824 5825 5826 5826 5827 5830 5832 5832 5833
5770 5770 5770 5771 5772 5772 5773 5774 5775 5777 5778 5778 5779 5782 5783 5784 5785 5787 5788 5790 5791 5791 5792 5793 5794 5797 5799 5800 5802 5803 5802 5801 5801 5801 5801 5798 5796 5796 5793 5794 5799 5800 5799 5801 5800 5799 5799 5800 5803 5807 5811 5813 5814 5815 5815 5814 5814 5814 5813 5812 5813 5814 5815 5816 5817 5817 5817 5818 5818 5818 5818 5818 5818 5818 5817 5817 5817 5816 5816 5817 5817 5818 5818 5818 5819 5819 5820 5821 5821 5823 5824 5824 5825 5827 5830 5831 5831
5767 5767 5768 5768 5769 5770 5771 5772 5773 5774 5775 5776 5777 5779 5780 5781 5782 5785 5786 5788 5789 5789 5790 5791 5793 5795 5797 5798 5800 5801 5800 5800 5801 5800 5799 5798 5795 5794 5791 5792 5797 5798 5798 5800 5799 5797 5798 5800 5804 5807 5809 5811 5813 5813 5813 5813 5813 5812 5812 5811 5811 5812 5813 5814 5814 5815 5815 5816 5816 5816 5816 5816 5816 5816 5816 5815 5815 5814 5814 5814 5815 5815 5816 5816 5817 5818 5818 5819 5819 5820 5822 5822 5823 5825 5827 5829 5829
5764 5765 5765 5766 5766 5767 5768 5770 5771 5771 5773 5774 5775 5777 5777 5778 5780 5783 5784 5785 5786 5787 5788 5789 5792 5794 5795 5797 5798 5798 5799 5799 5800 5799 5797 5796 5795 5793 5791 5792 5794 5795 5795 5798 5798 5796 5798 5801 5804 5806 5807 5809 5811 5812 5811 5811 5811 5811 5810 5810 5810 5811 5812 5812 5812 5813 5813 5814 5814 5814 5814 5814 5814 5814 5814 5813 5813 5812 5812 5812 5813 5813 5814 5814 5815 5816 5816 5817 5817 5818 5819 5821 5821 5823 5826 5827 5827
5761 5762 5762 5763 5764 5765 5765 5766 5767 5768 5770 5771 5772 5773 5775 5776 5778 5780 5781 5783 5784 5785 5786 5787 5790 5793 5793 5795 5796 5796 5797 5797 5798 5797 5795 5794 5794 5792 5791 5792 5793 5794 5794 5796 5798 5798 5799 5802 5803 5804 5806 5808 5809 5810 5810 5810 5810 5809 5809 5809 5809 5810 5810 5810 5811 5811 5811 5812 5812 5812 5813 5813 5812 5812 5812 5811 5811 5811 5811 5811 5811 5812 5813 5813 5814 5814 5814 5815 5815 5816 5818 5819 5820 5822 5824 5825 5825
5758 5759 5759 5760 5761 5762 5763 5763 5764 5765 5767 5768 5768 5769 5772 5774 5775 5776 5778 5780 5781 5782 5784 5785 5788 5791 5792 5792 5793 5795 5796 5796 5796 5796 5794 5792 5792 5791 5791 5791 5791 5793 5794 5795 5797 5798 5800 5801 5803 5804 5805 5806 5807 5807 5808 5808 5808 5808 5807 5807 5808 5808 5808 5808 5809 5809 5809 5810 5810 5810 5811 5811 5811 5811 5810 5810 5810 5810 5810 5810 5810 5811 5812 5812 5813 5813 5814 5814 5815 5815 5817 5818 5819 5821 5822 5823 5823
5755 5756 5756 5757 5759 5759 5760 5760 5761 5763 5764 5765 5764 5765 5769 5771 5771 5773 5775 5777 5778 5780 5781 5783 5785 5788 5789 5790 5791 5793 5794 5794 5794 5794 5793 5791 5791 5791 5791 5791 5791 5792 5793 5794 5795 5797 5798 5800 5802 5803 5804 5805 5805 5806 5806 5806 5806 5806 5806 5806 5806 5807 5807 5807 5807 5807 5808 5808 5808 5809 5809 5810 5810 5809 5809 5809 5809 5809 5809 5809 5809 5810 5811 5812 5812 5813 5813 5814 5814 5815 5816 5817 5818 5819 5820 5821 5822
5752 5753 5754 5755 5756 5757 5757 5757 5758 5759 5760 5761 5761 5762 5766 5768 5768 5770 5772 5773 5775 5777 5778 5780 5782 5785 5787 5788 5789 5790 5792 5792 5793 5793 5792 5791 5791 5791 5791 5791 5791 5791 5792 5793 5794 5795 5796 5798 5799 5801 5802 5803 5803 5804 5804 5805 5805 5805 5805 5805 5805 5805 5805 5805 5805 5806 5806 5807 5807 5807 5808 5808 5808 5808 5808 5808 5808 5808 5809 5809 5809 5810 5810 5811 5812 5812 5813 5813 5814 5814 5815 5816 5817 5817 5818 5819 5820
5749 5750 5751 5752 5754 5754 5755 5755 5755 5756 5757 5758 5759 5759 5763 5766 5767 5768 5769 5771 5772 5773 5775 5777 5780 5783 5785 5786 5788 5789 5790 5791 5791 5791 5791 5791 5791 5791 5790 5790 5790 5791 5791 5792 5793 5794 5795 5795 5796 5798 5799 5800 5801 5802 5802 5803 5803 5803 5803 5803 5803 5803 5803 5803 5804 5804 5805 5805 5806 5806 5806 5807 5806 5806 5807 5807 5807 5807 5807 5808 5809 5809 5809 5810 5811 5812 5812 5813 5813 5814 5814 5815 5816 5816 5817 5818 5819
5746 5747 5748 5749 5751 5752 5753 5753 5753 5753 5754 5755 5756 5756 5759 5764 5765 5766 5767 5768 5769 5770 5773 5775 5778 5781 5783 5784 5786 5787 5788 5789 5790 5790 5790 5790 5790 5790 5790 5789 5790 5790 5790 5791 5792 5792 5793 5794 5795 5796 5797 5798 5799 5800 5800 5801 5801 5801 5801 5801 5801 5801 5802 5802 5802 5803 5803 5804 5804 5804 5805 5805 5805 5805 5805 5805 5805 5806 5806 5807 5808 5808 5808 5809 5810 5811 5811 5812 5813 5813 5814 5814 5815 5815 5816 5817 5817
5743 5744 5745 5747 5748 5749 5750 5751 5750 5750 5751 5752 5753 5754 5757 5760 5762 5763 5764 5764 5766 5768 5770 5773 5776 5779 5781 5782 5784 5786 5787 5787 5788 5789 5789 5789 5789 5789 5789 5789 5789 5789 5790 5790 5791 5792 5792 5793 5794 5795 5796 5797 5797 5798 5798 5799 5799 5799 5799 5799 5799 5799 5800 5800 5801 5801 5801 5802 5802 5802 5803 5803 5804 5804 5804 5804 5804 5805 5805 5806 5806 5807 5807 5808 5809 5810 5811 5812 5812 5812 5813 5813 5814 5814 5815 5816 5816
5740 5741 5742 5744 5746 5747 5748 5748 5747 5747 5748 5749 5750 5752 5753 5756 5759 5759 5760 5761 5762 5764 5767 5770 5773 5776 5779 5781 5782 5784 5785 5785 5786 5787 5788 5788 5788 5788 5788 5788 5788 5788 5789 5789 5790 5791 5792 5792 5793 5793 5794 5794 5794 5795 5795 5796 5797 5797 5797 5797 5797 5798 5798 5799 5799 5799 5800 5800 5800 5801 5801 5802 5802 5802 5802 5803 5803 5804 5804 5805 5805 5806 5806 5807 5808 5809 5810 5811 5811 5812 5812 5813 5813 5813 5814 5815 5815
5737 5738 5739 5741 5743 5744 5745 5745 5745 5745 5745 5747 5748 5749 5750 5753 5755 5756 5757 5758 5759 5762 5765 5768 5771 5774 5777 5779 5780 5782 5783 5783 5783 5786 5787 5786 5787 5787 5787 5787 5787 5787 5787 5788 5788 5789 5790 5791 5791 5792 5792 5791 5791 5792 5793 5794 5795 5795 5796 5796 5796 5796 5796 5797 5798 5798 5798 5798 5799 5799 5800 5800 5801 5801 5801 5802 5802 5803 5803 5804 5804 5804 5805 5806 5807 5808 5809 5810 5810 5811 5811 5811 5812 5812 5813 5814 5814
5734 5735 5737 5739 5740 5742 5743 5742 5742 5742 5743 5745 5747 5747 5748 5751 5752 5753 5755 5756 5758 5760 5763 5765 5768 5771 5774 5776 5777 5779 5780 5780 5781 5784 5785 5784 5784 5785 5785 5785 5785 5785 5786 5786 5786 5787 5788 5789 5789 5790 5790 5789 5790 5792 5793 5793 5793 5794 5794 5795 5794 5795 5795 5796 5796 5796 5796 5797 5797 5798 5799 5799 5800 5800 5800 5801 5801 5802 5802 5803 5803 5803 5804 5805 5806 5807 5808 5809 5809 5809 5810 5810 5811 5811 5812 5813 5813
5732 5733 5734 5736 5738 5739 5740 5740 5740 5739 5740 5743 5744 5744 5746 5748 5749 5750 5752 5754 5756 5758 5760 5763 5765 5767 5770 5773 5774 5776 5778 5778 5779 5781 5783 5782 5782 5783 5783 5784 5784 5784 5784 5784 5784 5785 5786 5787 5787 5788 5788 5789 5789 5791 5791 5791 5792 5792 5793 5792 5792 5793 5793 5794 5794 5795 5795 5795 5796 5797 5798 5798 5799 5799 5799 5800 5800 5801 5801 5801 5802 5802 5803 5804 5805 5806 5807 5807 5808 5808 5808 5809 5810 5810 5811 5811 5812
5729 5730 5732 5734 5736 5737 5737 5737 5737 5736 5738 5741 5741 5741 5743 5745 5746 5747 5749 5751 5753 5755 5757 5759 5761 5764 5767 5769 5771 5773 5775 5776 5776 5778 5779 5779 5780 5780 5781 5781 5782 5782 5782 5782 5782 5783 5784 5785 5785 5786 5786 5787 5787 5788 5788 5789 5789 5790 5790 5790 5790 5791 5791 5792 5792 5793 5793 5794 5795 5796 5797 5797 5797 5798 5798 5799 5799 5800 5800 5801 5801 5802 5802 5803 5804 5805 5805 5806 5806 5806 5807 5808 5809 5809 5810 5810 5810
5727 5728 5730 5732 5733 5734 5735 5734 5733 5734 5736 5738 5737 5737 5740 5742 5743 5744 5745 5748 5750 5751 5753 5756 5758 5761 5763 5765 5767 5770 5772 5772 5773 5774 5776 5776 5777 5778 5778 5779 5780 5780 5781 5781 5781 5781 5782 5783 5783 5784 5784 5784 5784 5785 5785 5786 5786 5787 5787 5787 5788 5788 5789 5790 5790 5791 5792 5793 5795 5795 5795 5795 5796 5796 5797 5797 5798 5799 5799 5799 5800 5801 5801 5802 5802 5803 5804 5804 5805 5805 5806 5807 5807 5808 5808 5809 5809
5725 5727 5728 5730 5731 5731 5731 5731 5731 5732 5734 5734 5734 5735 5737 5740 5741 5741 5742 5744 5747 5748 5750 5753 5755 5757 5759 5761 5764 5767 5768 5769 5769 5771 5772 5773 5774 5775 5776 5777 5778 5778 5778 5779 5779 5779 5780 5781 5781 5781 5782 5782 5782 5782 5782 5783 5784 5784 5784 5785 5785 5786 5786 5787 5789 5789 5791 5792 5793 5793 5794 5794 5794 5795 5796 5796 5796 5797 5798 5798 5799 5800 5800 5801 5801 5802 5803 5803 5804 5804 5805 5805 5806 5807 5807 5808 5808
5723 5725 5726 5726 5727 5728 5728 5728 5728 5730 5731 5731 5731 5733 5735 5737 5738 5738 5739 5740 5743 5745 5747 5749 5751 5753 5755 5758 5761 5763 5764 5765 5766 5767 5768 5770 5772 5773 5773 5774 5775 5775 5776 5776 5777 5777 5778 5779 5779 5779 5779 5779 5779 5779 5779 5780 5781 5781 5781 5782 5782 5783 5784 5786 5787 5788 5789 5791 5791 5791 5792 5792 5793 5794 5794 5794 5795 5795 5796 5797 5798 5799 5800 5800 5801 5801 5802 5803 5803 5803 5804 5804 5805 5805 5806 5806 5807
5721 5722 5722 5723 5724 5724 5724 5725 5726 5727 5728 5729 5730 5731 5733 5735 5736 5736 5736 5738 5740 5742 5743 5745 5747 5750 5752 5754 5757 5759 5761 5762 5762 5763 5765 5767 5769 5770 5771 5771 5772 5772 5773 5774 5774 5775 5775 5776 5776 5776 5776 5776 5776 5776 5776 5777 5777 5778 5778 5779 5779 5780 5782 5783 5784 5786 5788 5789 5789 5790 5790 5791 5791 5792 5792 5792 5793 5794 5795 5796 5797 5798 5799 5800 5800 5801 5801 5802 5802 5802 5803 5803 5803 5804 5805 5805 5805
5718 5718 5719 5720 5721 5721 5722 5723 5724 5725 5726 5728 5729 5730 5731 5732 5734 5734 5734 5735 5737 5738 5739 5741 5744 5746 5748 5750 5752 5754 5756 5757 5758 5759 5762 5764 5765 5767 5767 5768 5769 5770 5770 5771 5771 5772 5773 5773 5773 5773 5773 5773 5773 5773 5772 5773 5774 5775 5776 5777 5778 5779 5780 5781 5782 5784 5786 5787 5787 5788 5788 5788 5789 5790 5790 5791 5792 5793 5795 5796 5797 5798 5798 5799 5799 5800 5800 5800 5801 5801 5801 5802 5802 5803 5803 5803 5804
5715 5716 5717 5718 5719 5720 5720 5721 5723 5723 5725 5728 5728 5728 5729 5730 5732 5733 5733 5734 5735 5735 5736 5738 5740 5742 5744 5746 5748 5751 5752 5753 5755 5756 5759 5760 5762 5763 5763 5764 5765 5766 5767 5768 5768 5769 5770 5770 5770 5770 5770 5770 5769 5768 5769 5771 5773 5774 5775 5776 5776 5777 5778 5779 5780 5782 5783 5784 5785 5786 5786 5787 5787 5788 5789 5790 5791 5793 5794 5795 5796 5797 5797 5798 5798 5798 5798 5799 5799 5799 5800 5800 5801 5801 5801 5802 5802
5712 5714 5715 5716 5717 5718 5719 5720 5720 5721 5724 5727 5726 5726 5727 5728 5730 5732 5733 5733 5734 5734 5735 5737 5739 5740 5742 5744 5746 5748 5750 5751 5752 5754 5755 5755 5756 5757 5758 5760 5761 5763 5764 5764 5765 5766 5767 5767 5768 5767 5766 5766 5766 5766 5768 5771 5773 5773 5773 5773 5774 5774 5775 5777 5778 5779 5781 5782 5783 5784 5785 5785 5786 5787 5789 5790 5791 5792 5793 5794 5795 5796 5796 5797 5797 5797 5797 5797 5797 5798 5799 5799 5799 5800 5800 5801 5801
5710 5712 5712 5714 5715 5716 5717 5718 5718 5720 5723 5725 5724 5725 5725 5726 5729 5730 5731 5732 5734 5734 5735 5736 5738 5740 5742 5744 5745 5747 5749 5750 5751 5753 5753 5753 5754 5756 5757 5758 5758 5760 5760 5761 5762 5763 5765 5765 5765 5764 5763 5763 5764 5765 5767 5770 5769 5770 5770 5771 5771 5772 5772 5774 5776 5777 5779 5780 5781 5782 5783 5784 5785 5786 5788 5789 5790 5791 5791 5792 5793 5794 5794 5795 5795 5796 5796 5796 5796 5797 5797 5798 5798 5799 5799 5799 5800
5708 5709 5710 5711 5712 5713 5714 5715 5716 5719 5721 5722 5722 5723 5723 5725 5727 5729 5729 5731 5732 5734 5735 5737 5738 5740 5741 5743 5745 5747 5748 5750 5752 5754 5755 5757 5758 5758 5758 5757 5757 5758 5758 5758 5760 5761 5762 5762 5762 5761 5761 5762 5763 5764 5766 5767 5767 5767 5768 5768 5769 5769 5770 5772 5773 5774 5776 5778 5779 5781 5782 5783 5784 5785 5787 5788 5789 5789 5790 5791 5791 5792 5793 5793 5794 5794 5794 5794 5794 5795 5796 5796 5797 5797 5797 5798 5798
5706 5706 5707 5709 5710 5711 5712 5713 5715 5717 5718 5719 5720 5721 5721 5723 5726 5727 5728 5729 5731 5733 5735 5737 5738 5739 5741 5743 5744 5746 5748 5749 5751 5752 5753 5756 5757 5756 5756 5756 5757 5757 5756 5756 5757 5759 5759 5759 5759 5760 5760 5761 5762 5763 5764 5765 5765 5765 5766 5766 5767 5767 5768 5770 5771 5773 5774 5775 5777 5779 5780 5781 5782 5784 5786 5787 5787 5787 5788 5789 5790 5791 5791 5792 5792 5792 5792 5792 5793 5793 5794 5794 5795 5796 5796 5796 5796
5702 5703 5705 5706 5708 5710 5711 5712 5713 5714 5715 5716 5718 5719 5719 5722 5724 5726 5727 5729 5730 5732 5734 5736 5738 5739 5741 5742 5743 5745 5746 5747 5748 5748 5749 5750 5752 5753 5753 5754 5754 5755 5755 5755 5755 5756 5756 5757 5758 5759 5759 5760 5762 5761 5762 5763 5763 5763 5764 5765 5765 5766 5767 5768 5770 5772 5773 5774 5776 5777 5779 5780 5781 5783 5784 5785 5786 5786 5787 5788 5789 5789 5789 5790 5790 5790 5790 5791 5791 5791 5792 5792 5793 5794 5794 5794 5795
5700 5701 5703 5705 5707 5708 5709 5709 5711 5712 5713 5714 5716 5717 5718 5720 5723 5724 5726 5727 5729 5731 5733 5735 5736 5738 5739 5740 5741 5742 5743 5744 5744 5744 5744 5745 5747 5748 5749 5750 5751 5752 5753 5753 5753 5754 5755 5756 5756 5757 5759 5760 5760 5760 5761 5762 5763 5763 5764 5764 5765 5766 5767 5768 5770 5771 5772 5774 5775 5776 5778 5779 5780 5782 5783 5784 5785 5786 5786 5787 5787 5787 5787 5788 5788 5788 5788 5789 5789 5789 5790 5790 5791 5791 5792 5792 5793
5698 5699 5702 5704 5705 5706 5707 5708 5709 5710 5711 5712 5714 5715 5717 5719 5721 5722 5724 5726 5727 5729 5731 5732 5734 5735 5736 5737 5738 5739 5740 5741 5740 5740 5740 5741 5743 5745 5745 5746 5748 5750 5752 5751 5751 5752 5753 5755 5755 5755 5757 5757 5757 5758 5760 5761 5762 5762 5763 5764 5764 5765 5766 5768 5769 5770 5772 5773 5774 5775 5776 5778 5779 5781 5782 5783 5784 5784 5785 5785 5785 5785 5785 5786 5786 5786 5786 5787 5787 5788 5788 5788 5789 5789 5790 5791 5791
5696 5699 5701 5703 5703 5704 5705 5706 5707 5708 5709 5710 5712 5714 5715 5717 5719 5720 5722 5723 5725 5727 5729 5730 5731 5732 5733 5734 5735 5736 5737 5737 5737 5736 5736 5737 5739 5740 5742 5744 5746 5749 5750 5750 5750 5751 5752 5753 5753 5752 5754 5754 5755 5757 5758 5759 5760 5760 5761 5763 5763 5764 5766 5767 5768 5769 5770 5771 5772 5774 5775 5777 5778 5779 5781 5781 5782 5782 5782 5782 5782 5783 5783 5784 5784 5784 5784 5784 5785 5786 5786 5786 5787 5788 5788 5789 5789
5695 5697 5699 5700 5700 5701 5703 5704 5705 5706 5707 5708 5710 5712 5713 5715 5717 5718 5719 5721 5723 5725 5727 5728 5729 5729 5730 5732 5733 5733 5734 5734 5733 5732 5733 5734 5736 5738 5741 5743 5744 5746 5748 5749 5750 5750 5750 5751 5751 5751 5752 5753 5754 5755 5756 5757 5758 5758 5759 5760 5761 5763 5764 5765 5766 5768 5769 5770 5771 5773 5774 5776 5777 5778 5779 5780 5780 5780 5780 5780 5780 5781 5781 5781 5782 5782 5782 5782 5783 5784 5784 5785 5785 5785 5786 5787 5787
5693 5695 5696 5697 5698 5700 5701 5701 5703 5704 5705 5706 5708 5710 5711 5713 5715 5716 5717 5719 5720 5722 5724 5725 5726 5727 5728 5730 5730 5730 5730 5730 5730 5730 5732 5734 5736 5737 5740 5741 5742 5744 5745 5747 5748 5747 5747 5748 5749 5749 5750 5751 5752 5753 5754 5755 5756 5756 5757 5757 5758 5760 5762 5763 5764 5766 5768 5769 5770 5771 5772 5774 5775 5776 5777 5777 5778 5778 5778 5778 5779 5779 5779 5780 5780 5780 5780 5781 5781 5781 5782 5782 5782 5783 5784 5784 5785
5690 5692 5694 5695 5696 5697 5698 5699 5701 5702 5703 5704 5706 5707 5709 5711 5712 5713 5715 5717 5718 5720 5722 5723 5724 5725 5726 5727 5727 5727 5728 5728 5728 5729 5731 5733 5735 5735 5736 5738 5739 5741 5742 5744 5745 5744 5743 5744 5744 5745 5747 5748 5749 5750 5751 5752 5753 5754 5754 5754 5756 5757 5759 5761 5762 5764 5766 5767 5768 5769 5770 5771 5772 5773 5774 5775 5775 5776 5776 5776 5777 5777 5778 5778 5778 5778 5779 5779 5779 5779 5779 5779 5779 5780 5781 5782 5783
5688 5690 5692 5693 5694 5695 5696 5697 5699 5700 5701 5702 5704 5705 5707 5709 5710 5711 5713 5715 5716 5718 5719 5720 5721 5722 5723 5724 5724 5725 5726 5725 5725 5727 5728 5730 5731 5732 5733 5735 5736 5738 5739 5740 5740 5738 5737 5738 5740 5743 5744 5746 5747 5748 5749 5750 5751 5752 5753 5753 5754 5756 5757 5758 5760 5762 5763 5765 5766 5767 5768 5768 5769 5771 5772 5772 5773 5773 5773 5774 5774 5775 5775 5776 5776 5776 5777 5777 5777 5777 5776 5776 5777 5777 5778 5779 5780